Regional Weather Roundup
Issued by NWS

Home | Current Version | Previous Version | Text Only | Print | Product List | Glossary Off
Versions: 1 2 3 4 5 6 7 8 9 10 11 12 13 14 15 16 17 18 19 20 21 22 23 24 25 26 27 28 29 30 31 32 33 34 35 36 37 38 39 40 41 42 43 44 45 46 47 48 49 50

000
ASUS43 KFSD 050502
RWRSD

WEATHER ROUNDUP FOR SOUTH DAKOTA
NATIONAL WEATHER SERVICE SIOUX FALLS SD
1200 AM CDT TUE MAY 05 2015

NOTE: "FAIR" INDICATES FEW OR NO CLOUDS BELOW 12,000 FEET WITH NO
SIGNIFICANT WEATHER AND/OR OBSTRUCTIONS TO VISIBILITY.


SDZ001>005-009-010-012>017-050600-
NORTHWEST AND NORTH CENTRAL SOUTH DAKOTA

CITY           SKY/WX    TMP DP  RH WIND       PRES   REMARKS
BUFFALO          N/A     49  30  48 SE17      29.99F
FAITH            N/A     52  29  41 SE12      30.10S
MOBRIDGE       CLOUDY    58  24  27 SE9       30.10S
$$

SDZ012>016-024>037-041>051-057-063-072>074-050600-
SOUTHWEST AND SOUTH CENTRAL SOUTH DAKOTA

CITY           SKY/WX    TMP DP  RH WIND       PRES   REMARKS
RAPID CTY ARPT CLOUDY    48  39  71 S3        30.10F
PIERRE         MOCLDY    53  25  33 SE3       30.09F
CUSTER         CLOUDY    44  28  53 E6        30.13F
ELLSWORTH AFB  CLOUDY    49  38  65 S8        30.09F
PHILIP         PTCLDY    45  24  43 NE3       30.10S
PINE RIDGE     MOCLDY    43  30  60 SE7       30.12R
WINNER         MOCLDY    57  33  40 S7        30.12R
$$

SDZ004>011-016>023-039-040-050600-
NORTHEAST SOUTH DAKOTA

CITY           SKY/WX    TMP DP  RH WIND       PRES   REMARKS
ABERDEEN       PTCLDY    50  28  42 E8        30.15S
WATERTOWN      CLEAR     56  27  32 E9        30.17R
BROOKINGS      CLEAR     55  27  33 E7        30.17R
SISSETON         N/A     46  29  51 CALM      30.18R
$$

SDZ017-020-022-023-036>040-048>070-050600-
SOUTHEAST SOUTH DAKOTA

CITY           SKY/WX    TMP DP  RH WIND       PRES   REMARKS
SIOUX FALLS    PTCLDY    54  29  38 E6        30.15R
HURON          CLEAR     55  30  38 E9        30.13R
MITCHELL       CLEAR     55  35  47 S5        30.13R
YANKTON        CLOUDY    55  45  67 CALM      30.13S
$$

ABBREVIATIONS USED IN REMARKS
   TC - TEMPERATURE IN CELSIUS
  WCI - WIND CHILL INDEX
   HX - HEAT INDEX
  VSB - VISIBILITY



USA.gov is the U.S. government's official web portal to all federal, state and local government web resources and services.